Location: Baia Mare
(47.6567°N, 23.5850°E)
Time: 19:16:03
(UTC+02:00)

ISS - Pass Details

Date: 24 February 2020
Orbit: 417 x 420 km, 51.6° (Epoch: 28 October)

Event Time Altitude Azimuth Distance (km) Brightness Sun altitude
Exits shadow 06:08:10 - 220° (SW) 1,562 -1.2 -12.3°
Reaches altitude 10° 06:08:17 10° 219° (SW) 1,513 -1.3 -12.3°
Maximum altitude 06:11:32 43° 147° (SSE) 609 -2.7 -11.7°
Drops below altitude 10° 06:14:48 10° 74° (ENE) 1,520 0.4 -11.2°
Sets 06:16:58 0° 68° (ENE) 2,389 1.4 -10.8°
